Terminal Aerodrome Forecast
Issued by NWS

Home | Current Version | Previous Version | Text Only | Print | Product List | Glossary On
Versions: 1 2 3 4 5 6 7 8 9 10 11 12
000
FTUS43 KJKL 130500
TAFSME
TAF
KSME 130540Z 1306/1406 00000KT 6SM BR OVC007
     FM131700 36010KT P6SM OVC015
     FM132100 02006KT P6SM SCT022 BKN035
      AMD NOT SKED=

USA.gov is the U.S. government's official web portal to all federal, state and local government web resources and services.